Regional Weather Roundup
Issued by NWS Grand Forks, ND

Home | Current Version | Previous Version | Graphics & Text | Print | Product List | Glossary On
Versions: 1 2 3 4 5 6 7 8 9 10 11 12 13 14 15 16 17 18 19 20 21 22 23 24 25 26 27 28 29 30 31 32 33 34 35 36 37 38 39 40 41 42 43 44 45 46 47 48 49 50
512
ASUS43 KFGF 222010
RWRFGF
PRAIRIE TO PINES  WEATHER ROUNDUP
NATIONAL WEATHER SERVICE EASTERN NORTH DAKOTA/GRAND FORKS ND
200 PM CST SUN JAN 22 2017

 **SATELLITE DATA USED TO AUGMENT SKY COVER AT AUTOMATED STATIONS**
 *****  WEATHER ACROSS EASTERN NORTH DAKOTA  *****

CITY           SKY/WX    TMP DP  RH WIND       PRES   REMARKS
GRAND FORKS    CLOUDY    34  29  82 W9        29.73S
GRAND FRKS AFB CLOUDY    32  29  87 W9        29.73S WCI  24
DEVILS LAKE    CLOUDY    31  28  89 W13       29.72F WCI  21
FARGO          CLOUDY    36  31  82 W7        29.74S HAZE
WAHPETON ARPT  CLOUDY    32  30  93 NW9       29.76S WCI  24
$$

 ***** WEATHER ACROSS CENTRAL AND WESTERN NORTH DAKOTA  *****

CITY           SKY/WX    TMP DP  RH WIND       PRES   REMARKS
BISMARCK       CLOUDY    33  29  85 NW10      29.80S WCI  25
MINOT          CLOUDY    34  30  85 W10       29.75S
JAMESTOWN      CLOUDY    33  29  85 NW16      29.72F WCI  23
MINOT AFB      CLOUDY    32  29  90 W10       29.74S WCI  23
GARRISON         N/A     32  28  85 W14       29.76F WCI  22
WILLISTON      CLOUDY    31  27  85 W13       29.80S WCI  21
DICKINSON      CLOUDY    26  23  88 W22       29.78S WCI  12
HETTINGER      CLOUDY    28  25  88 W18       29.81F WCI  15
$$

 *****  OTHER AIRPORT OBSERVATIONS IN OUR AREA  *****

CITY           SKY/WX    TMP DP  RH WIND       PRES   REMARKS
WALHALLA       NOT AVBL
GRAFTON AIRPOR CLOUDY    32  32 100 W6        29.74S FOG
VALLEY CITY AR CLOUDY    32  32 100 NW15      29.75S FOG     WCI  22
CANDO          NOT AVBL
CAVALIER APRT  CLOUDY    34  32  93 NW7       29.71F FOG
GWINNER        CLOUDY    34  32  93 W10       29.76S
SHEYENNE NWR     N/A     34  31  88 NW7       29.95S
ROLLA            N/A    N/A N/A N/A MISG        N/A
 ***** THE ABOVE OBSERVATIONS ARE NON NWS ARE NOT QUALITY
       CONTROLLED AND MAY MIS-REPORT RAIN FOR SNOW...
$$

  *****  WEATHER ACROSS NORTHERN MINNESOTA  *****

CITY           SKY/WX    TMP DP  RH WIND       PRES   REMARKS
FLAG ISLAND    CLOUDY    34  32  93 S5        29.69S
WARROAD        CLOUDY    36  30  80 SW5       29.71S
ROSEAU         CLOUDY    36  30  80 CALM      29.70F
HALLOCK        FOG       34  34 100 W5        29.71F VSB 1/4
THF RVR FALLS  FOG       33  32  96 W7        29.72F VSB 1/4
BAUDETTE       CLOUDY    35  33  92 CALM      29.69F
WASKISH        CLOUDY    36  34  93 W5        29.70S FOG
CROOKSTON      CLOUDY    32  32 100 W3        29.74S FOG
GREENBUSH NDAW   N/A     34  34 100 W3          N/A
$$
  *****  WEATHER ACROSS CENTRAL AND WEST MINNESOTA  *****

CITY           SKY/WX    TMP DP  RH WIND       PRES   REMARKS
FOSSTON        FOG       34  32  93 W5        29.71S VSB 1/4
BEMIDJI        CLOUDY    34  34  99 W6        29.69S
PARK RAPIDS    CLOUDY    36  32  85 NW6       29.69F
ELBOW LAKE     FOG       31  31 100 NW9       29.75R VSB 3/4 WCI  23
WADENA         FOG       34  34 100 W6        29.70F VSB 1/4
DETROIT LAKES  FOG       32  32 100 NW10      29.73S VSB 1/4 WCI  24
MOORHEAD       CLOUDY    34  30  86 NW6       29.75S FOG
FERGUS FALLS   FOG       32  32 100 W9        29.78S VSB 1/4 WCI  24
MORRIS MN      CLOUDY    32  30  93 W15       29.74S FOG     WCI  22
STAPLES        CLOUDY    36  36 100 W3        29.70F FOG
$$
  *****  WEATHER ELSEWHERE ACROSS MINNESOTA  *****

CITY           SKY/WX    TMP DP  RH WIND       PRES   REMARKS
DULUTH         LGT RAIN  36  35  96 NW6       29.65S
INTRNTL FALLS  CLOUDY    38  34  85 CALM      29.68F
ELY            CLOUDY    36  34  93 CALM      29.66S FOG
CLOQUET        CLOUDY    36  36 100 NW5       29.66F
WHEATON        CLOUDY    36  36 100 W8        29.78S FOG
BRAINERD       CLOUDY    36  35  96 NW6       29.70S
HIBBING        CLOUDY    34  34 100 NW5       29.66F
ALEXANDRIA     FOG       32  32 100 NW9       29.73S VSB 1/4 WCI  24
SAINT CLOUD    CLOUDY    38  36  92 NW7       29.71S
MINNEAPOLIS    CLOUDY    39  34  82 NW8       29.71S
$$

  *****  WEATHER ACROSS SOUTH DAKOTA  *****

CITY           SKY/WX    TMP DP  RH WIND       PRES   REMARKS
SIOUX FALLS    CLOUDY    32  29  88 NW13      29.80S FOG     WCI  22
BROOKINGS      CLOUDY    28  27  96 NW14      29.77S FOG     WCI  17
WATERTOWN      CLOUDY    28  28 100 W12       29.76R FOG     WCI  18
HURON          CLOUDY    29  27  92 W12       29.82S WCI  19
SISSETON         N/A     34  31  88 NW13      29.75F WCI  25
ABERDEEN       CLOUDY    29  24  82 W12       29.79F WCI  19
MITCHELL       FAIR      31  27  85 NW15      29.85S WCI  20
PIERRE         CLOUDY    28  24  85 W16       29.84F WCI  16
MOBRIDGE       CLOUDY    28  24  85 NW10      29.79S WCI  19
RAPID CITY     FAIR      39  26  59 SE6       29.83F
$$

  *****  SOME WEATHER IN NEARBY STATES *****

CITY           SKY/WX    TMP DP  RH WIND       PRES   REMARKS
GLASGOW MT     CLOUDY    31  24  75 W16       29.83F WCI  20
GREAT FALLS MT FAIR      34  24  67 E7        29.76F
CHEYENNE WY    FAIR      37   8  30 W25G35    29.89F
SCOTTSBLUFF NE FAIR      45  20  36 W16       29.88F
OMAHA NE       CLOUDY    37  31  78 N8        29.80R
DES MOINES IA  CLOUDY    38  35  89 NW8       29.72S FOG
DAVENPORT IA   CLOUDY    41  37  86 N8        29.66S
CHICAGO IL     CLOUDY    45  39  79 N6        29.60S
EAU CLAIRE WI  CLOUDY    37  35  92 NW5       29.67S
LA CROSSE WI   CLOUDY    40  36  86 NW7       29.68S
$$

  *****  SOME NATIONAL WEATHER *****

CITY           SKY/WX    TMP DP  RH WIND       PRES   REMARKS
LA GUARDIA NY  CLOUDY    46  41  82 NE15G23   29.70R
RALEIGH NC     CLOUDY    55  53  93 NE6       29.54S VSB 3/4
ATLANTA GA     FOG       60  60 100 E13       29.29F VSB 1/4
NEW ORLEANS LA FAIR      66  40  38 W24G33    29.44S
OKLAHOMA CITY  FAIR      57  37  47 N26G39    29.74R
ALBUQUERQUE NM FAIR      42  20  41 N8        30.13F
SALT LAKE CITY PTSUNNY   37  24  59 SE14      29.84F
LOS ANGELES CA HVY RAIN  50  49  96 E20G26    30.02F FOG
BOISE ID       CLOUDY    40  26  57 SE24G33   29.63F
SEATTLE WA     CLOUDY    45  39  79 SE8       29.54R
$$

*** WEATHER ACROSS MANITOBA...SASKATCHEWAN AND ONTARIO ***
                ***ONTARIO***

CITY           SKY/WX    TMP DP  RH WIND       PRES   REMARKS
GERALDTON      LGT SNOW  32  30  93 NE10      29.69S WCI  24
THUNDER BAY    CLOUDY    36  36 100 W3        29.67R
SIOUX LOOKOUT  FOG       34  34 100 VRB2      29.69F VSB 1
TORONTO        CLOUDY    41  39  93 E7        29.69F FOG
BIG TROUT LK   CLOUDY    27  25  93 SE7       29.84S WCI  19
PICKLE LAKE    CLOUDY    30  27  86 E7        29.74S WCI  23
DRYDEN         CLOUDY    34  34 100 NE5       29.69S
KENORA         CLOUDY    36  36 100 N2        29.69S
$$
                *** MANITOBA***

CITY           SKY/WX    TMP DP  RH WIND       PRES   REMARKS
BRANDON        CLOUDY    30  27  86 W13       29.70S WCI  20
DAUPHIN        CLOUDY    34  30  86 W7        29.68S
ISLAND LAKE    LGT SNOW  32  32 100 VRB2      29.76S FOG
PILOT MOUND      N/A     30  27  86 W6          N/A  WCI  24
THE PAS        LGT SNOW  34  32  93 NE6       29.73S
THOMPSON       LGT SNOW  28  27  93 NE7       29.80S WCI  21
WINNIPEG       LGT RAIN  34  34 100 CALM      29.71S VSB 3/8
LYNN LAKE      LGT SNOW  23  21  93 NE14G22   29.85F WCI  11
CHURCHILL      FOG       21  21 100 E6        29.94S VSB 1/2 WCI  14
GILLAM         LGT SNOW  25  23  93 NE5       29.84S FOG     WCI  19
$$
                ***SASKATCHEWAN***

CITY           SKY/WX    TMP DP  RH WIND       PRES   REMARKS
ESTEVAN        CLOUDY    28  28 100 W15       29.74F WCI  17
KINDERSLEY     CLOUDY    21  18  86 NW8       29.82S WCI  12
LLOYDMINSTER   CLOUDY    18  18 100 N9        29.87S FOG     WCI   6
PRINCE ALBERT  LGT SNOW  25  19  80 N8        29.77F FOG     WCI  16
REGINA         CLOUDY    28  23  80 NW18      29.73F WCI  16
YORKTON        FLURRIES  28  27  93 W9        29.67S WCI  20
N. BATTLEFORD  FLURRIES  19  16  86 NW14      29.86S WCI   6
LA RONGE       LGT SNOW  25  19  80 N12       29.85R WCI  14
SASKATOON      FLURRIES  21  16  79 N15       29.80F WCI   8
SWIFT CURRENT  CLOUDY    23  21  93 NW14      29.76F WCI  11
$$
NOTE: THESE ARE AUTOMATED STATIONS WITH LIMITED QUALITY CONTROL
      "FAIR" INDICATES FEW OR NO CLOUDS BELOW 12,000 FEET WITH NO
      SIGNIFICANT WEATHER AND/OR OBSTRUCTIONS TO VISIBILITY.
      SKY/WX - SKY CONDITION AND SIGNIFICANT WEATHER.
      TMP - AIR TEMPERATURE.    DP   - DEWPOINT TEMPERATURE.
      RH  - RELATIVE HUMIDITY.  PRES - PRESSURE.
      HX  - HEAT INDEX.         WCI  - WIND CHILL INDEX.
$




USA.gov is the U.S. government's official web portal to all federal, state and local government web resources and services.